Location: Antichan
(42.9728°N, 0.6667°E)
Time: 17:29:49
(UTC+00:00)

Cosmos 468 Rocket - Pass Details

Date: 15 August 2020
Orbit: 744 x 780 km, 74.0° (Epoch: 18 September)

Event Time Altitude Azimuth Distance (km) Brightness Sun altitude
Rises 20:29:15 0° 342° (NNW) 3,270 8.2 -15.4°
Reaches altitude 10° 20:31:40 10° 345° (NNW) 2,335 7.3 -15.7°
Maximum altitude 20:36:57 67° 68° (ENE) 838 4.0 -16.5°
Enters shadow 20:39:45 28° 144° (SE) 1,423 4.8 -16.9°
